STARLINK-34453, 64441

Orbit data source: Space-Track

STARLINK-34453, 64441 is a payload satellite owned by SpaceX/Seattle (US) in LEO that was launched on Wed, 18 Jun 2025 UTC via an FALCON 9 launch vehicle from the Air Force Eastern Test Range (AFETR). Payload-class satellites include a variety of spacecraft equipped with specific instruments for various scientific and technological missions. These include communications satellites like Starlink; space stations such as the ISS; scientific satellites like the Hubble; Earth observation satellites from companies like Planet Labs, Umbra, and HawkEye 360; GPS; miniature CubeSats for education and research; and military/defense satellites.

Loading next visibility...
Identifier
64441, 2025-130D
Orbit
LEO
Country
Flag of USUS
Related business
Manufacturer
SpaceX/Seattle
Mission
Operational Commercial Communications
Bus & Motor
STARLINK V2MO, Unknown motor
Mass
575 kg wet, ~530 kg dry
Launch date (UTC)
2025-06-18 (1 year ago)
Launch vehicle
FALCON 9
Launch site
Air Force Eastern Test Range (AFETR)
Object type
Payload
Rocket body
Debris
Shape & HBR
Box + 2 Pan, 17.7 m
Radar Cross Section
36.964 m², Large (>1 m²)

Expand to show TLE details & history
Last TLE update: 23 hours ago

TLE from 23 hours ago
0 STARLINK-34453
1 64441U 25130D   26170.86834119  .00022033  00000-0  66109-3 0  9991
2 64441  53.1596 332.7628 0001211  52.2299 307.8813 15.34410883 56362
Epoch: 2026-06-19T20:50Z
TLE epoch observation values (Epoch: 2026-06-19T20:50:24.678Z)
Latitude
-0.00005°
Longitude
112.06879°
Altitude
463.064 km
Speed
7.637 km/s
True Right ascension
22h 11m 03s
True Declination
0° 00' 00"
Sunlit
Object was in full shadow at epoch
Visualization orbit readout
Latitude
Unknown
Longitude
Unknown
Altitude
Unknown
Speed
Unknown
Apparent Right ascension
Unknown
Apparent Declination
Unknown
Sunlit
N/A
Visualization observer readout
Local Sidereal Time
07:12:29
Azimuth
Unknown
Elevation
Unknown
Doppler factor
Unknown
Orbital elements
Apogee altitude
463.756 km
Perigee altitude
462.099 km
Semi-major axis
6,841.065 km
Eccentricity
0.00012
Inclination
53.1596°
RAAN
332.7628°
Arg. of periapsis
52.2299°
True anomaly
307.87035°
Mean anomaly
307.8813°
Eccentric anomaly
307.87582°
Mean motion
3.83581 °/min
Orbital period
93.85 mins
BSTAR
0.00066109
Loading maneuver chart data...
Computing Atmospheric mass density...
Loading historical data...
Loading historical data...
Loading historical data...
Loading historical data...
Loading historical data...
Loading historical data...
Loading historical data...

Documentation

Showing up to 5 results
|